Location: Rounton
(54.4000°N, 1.3500°W)
Time: 03:16:54
(UTC+00:00)

Envisat - Pass Details

Date: 30 October 2021
Orbit: 764 x 766 km, 98.2° (Epoch: 28 November)

Event Time Altitude Azimuth Distance (km) Brightness Sun altitude
Rises 04:52:42 0° 25° (NNE) 3,246 6.8 -28.0°
Reaches altitude 10° 04:55:50 10° 45° (NE) 2,314 6.2 -27.5°
Maximum altitude 04:59:09 17° 86° (E) 1,856 5.8 -27.1°
Drops below altitude 10° 05:02:27 10° 127° (SE) 2,302 5.9 -26.6°
Sets 05:05:33 0° 147° (SSE) 3,222 6.5 -26.2°
